Location: ?????????
(55.6553°N, 38.9075°E)
Time: 17:49:48
(UTC+00:00)

NOSS 3-1 (C) - Pass Details

Date: 18 October 2019
Orbit: 770 x 1439 km, 63.4° (Epoch: 09 November)

Event Time Altitude Azimuth Distance (km) Brightness Sun altitude
Exits shadow 01:28:01 29° 299° (WNW) 1,739 4.4 -22.0°
Maximum altitude 01:30:54 46° 353° (N) 1,394 4.3 -21.6°
Drops below altitude 10° 01:38:00 10° 66° (ENE) 3,134 7.3 -20.6°
Sets 01:41:09 0° 72° (ENE) 4,202 8.4 -20.2°
